This demonstration page uses our WeatherBlox Daily Observations layout. Learn more.

Left ArrowRight Arrow

34.74481, -87.66753

Hourly Observations for May 28, 2020

Temp ( °F °C ) Dew Point ( °F °C ) Humidity (%) Winds ( mph kmh ) Pressure ( in mb ) Visibility ( mi km ) Precip ( " mm )
12:53 am 00:53 Mostly Cloudy 65 18.3 63 17.2 93 93 ESE 5 7 29.92 1013 10 16 0.00 0.00
1:53 am 01:53 Mostly Clear 65 18.3 62 16.7 90 90 ESE 5 7 29.91 1013 10 16 0.00 0.00
2:25 am 02:25 Mostly Clear 65 18.3 62 16.7 90 90 SE 8 13 29.92 1013 10 16 0.00 0.00
2:53 am 02:53 Mostly Cloudy 65 18.3 62 16.7 90 90 SE 7 11 29.92 1013 10 16 0.00 0.00
3:53 am 03:53 Mostly Cloudy 64 17.8 62 16.7 93 93 SE 5 7 29.93 1013 10 16 0.00 0.00
4:53 am 04:53 Cloudy 65 18.3 62 16.7 90 90 SE 5 7 29.93 1014 10 16 0.00 0.00
5:03 am 05:03 Cloudy 65 18.3 62 16.7 90 90 SE 3 6 29.94 1014 10 16 0.00 0.00
5:10 am 05:10 Cloudy 65 18.3 62 16.7 90 90 E 5 7 29.94 1014 10 16 0.00 0.00
5:37 am 05:37 Cloudy 65 18.3 62 16.7 90 90 E 3 6 29.94 1014 10 16 0.00 0.00
5:53 am 05:53 Cloudy 65 18.3 62 16.7 90 90 E 3 6 29.95 1014 10 16 0.00 0.00
6:06 am 06:06 Cloudy 65 18.3 63 17.2 93 93 E 5 7 29.95 1014 10 16 0.00 0.00
6:53 am 06:53 Cloudy 66 18.9 63 17.2 90 90 ESE 3 6 29.96 1015 10 16 0.00 0.00
7:53 am 07:53 Cloudy 67 19.4 64 17.8 91 91 SE 6 9 29.97 1015 10 16 0.00 0.00
8:48 am 08:48 Cloudy 70 21 64 18 83 83 SSE 6 9 29.99 1015 10 16 0.00 0.00
8:53 am 08:53 Cloudy 69 20.6 65 18.3 87 87 SSE 6 9 29.98 1015 10 16 0.00 0.00
9:53 am 09:53 Cloudy 72 22.2 66 18.9 82 82 S 5 7 29.98 1015 10 16 0.00 0.00
10:05 am 10:05 Cloudy 72 22.2 66 18.9 82 82 S 3 6 29.98 1015 10 16 0.00 0.00
10:53 am 10:53 Mostly Cloudy 76 24.4 66 18.9 72 72 SSE 7 11 29.98 1015 10 16 0.00 0.00
11:35 am 11:35 Mostly Sunny 78 25.6 66 18.9 67 67 SSE 5 7 29.98 1015 10 16 0.00 0.00
11:53 am 11:53 Partly Cloudy 78 25.6 65 18.3 64 64 VRB 5 7 29.98 1015 10 16 0.00 0.00
12:12 pm 12:12 Mostly Cloudy 78 25.6 66 18.9 67 67 SW 8 13 29.97 1015 10 16 0.00 0.00
12:28 pm 12:28 Mostly Cloudy 80 26.7 65 18.3 60 60 SW 6 9 29.95 1014 10 16 0.00 0.00
12:53 pm 12:53 Mostly Cloudy 79 26.1 65 18.3 62 62 VRB 6 9 29.96 1015 10 16 0.00 0.00
1:53 pm 13:53 Partly Cloudy 82 27.8 64 17.8 55 55 S 8 13 29.93 1013 10 16 0.00 0.00
2:53 pm 14:53 Partly Cloudy 83 28.3 63 17.2 51 51 SSW 12 19 29.91 1013 10 16 0.00 0.00
3:53 pm 15:53 Mostly Sunny 83 28.3 62 16.7 49 49 SW 12 19 29.91 1013 10 16 0.00 0.00
4:53 pm 16:53 Mostly Sunny 83 28.3 62 16.7 49 49 S 13 20 29.90 1013 10 16 0.00 0.00
5:53 pm 17:53 Mostly Cloudy 73 22.8 61 16.1 66 66 WSW 26 43 29.95 1014 10 16 0.00 0.00
6:02 pm 18:02 Mostly Cloudy with Heavy Rain 72 22.2 62 16.7 71 71 W 18 30 29.95 1014 10 16 0.02 0.51
6:53 pm 18:53 Cloudy with Rain 67 19.4 62 16.7 84 84 WNW 5 7 29.97 1015 10 16 0.08 2.03
7:53 pm 19:53 Mostly Cloudy with Light Rain 67 19.4 63 17.2 87 87 ESE 3 6 29.96 1015 10 16 0.01 0.25
8:53 pm 20:53 Clear 66 18.9 63 17.2 90 90 Calm 29.97 1015 10 16 0.00 0.00
9:53 pm 21:53 Mostly Cloudy 66 18.9 63 17.2 90 90 ESE 3 6 29.98 1015 10 16 0.00 0.00
10:53 pm 22:53 Partly Cloudy 65 18.3 63 17.2 93 93 Calm 29.98 1015 10 16 0.00 0.00
11:53 pm 23:53 Partly Cloudy 66 18.9 63 17.2 90 90 Calm 29.99 1016 10 16 0.00 0.00

Powered by AerisWeather